sat.trackr.live / text

‹ back to catalog

ONEWEB-0427

NORAD 50499 · 2021-132AG

PAYLOAD ACTIVE UNKNOWN

§ Identity

Operator
Country
UK
Launch date
2021-12-27
Launch site
TYMSC
Launch vehicle
Mass (kg)
RCS (m²)

Purposes: comms

External: N2YO · Heavens-Above · Gunter

§ Orbital elements

Epoch: 2026-09-19T21:28:35.808096Z

Period
109.20 min
Inclination
87.9168°
Eccentricity
0.0002024
Mean motion
13.18685525 rev/d
Perigee alt
1,188.2 km
Apogee alt
1,191.3 km
Semi-major
7,567.9 km
B*
3.8305e-5
RAAN
316.6219°
Arg perigee
103.1628°
Mean anomaly
256.9730°
Rev number
23,409

§ Raw data

ONEWEB-04271 50499U 21132AG  26262.89485889  .00000028  00000+0  38305-4 0  99952 50499  87.9168 316.6219 0002024 103.1628 256.9730 13.18685525234099

JSON: /api/v1/satellites/50499 · /tle

For live sub-satellite position, see the globe view (requires WebGL).

§ Visibility from observer

Set your observer location to see the next 7 days of passes ≥ 10°. The values pass through the URL so the page stays shareable.

No JS? Fill the form by hand. The geolocation button needs JavaScript.